Location: Gorzów Wielkopolski
(52.7309°N, 15.2377°E)
Time: 16:52:51
(UTC+01:00)

ISS - Visible Passes

Search period start: 16 January 2019 00:00
Search period end: 26 January 2019 00:00
Orbit: 404 x 407 km, 51.6° (Epoch: 17 January)

Date Brightness Start Highest point End Pass type
(mag) Time Alt. Az. Time Alt. Az. Time Alt. Az.
23 Jan -1.3 18:37:17 10° S 18:38:06 13° S 18:38:06 13° S visible
24 Jan -1.3 17:47:26 10° SE 17:47:39 10° SE 17:47:52 10° SE visible
24 Jan -1.1 19:20:23 10° SW 19:21:11 16° SW 19:21:11 16° SW visible
25 Jan -2.4 18:28:48 10° SSW 18:31:29 26° SSE 18:31:29 26° SSE visible
